Fergus Falls, MN

2:01 PM CDT on June 25, 2017 (GMT -0500)
Fergus Falls Municipal-Mickelson

Weather History for KFFM - March, 2014

Change the Weather History Date:

Friday, March 21, 2014

  Actual Average Record
Temperature  
Mean Temperature 24 °F -  
Max Temperature 39 °F 37 °F 66 °F (2012)
Min Temperature 8 °F 19 °F -13 °F (1965)
Degree Days  
Heating Degree Days 42    
Moisture  
Dew Point 20 °F    
Average Humidity 83    
Maximum Humidity 100    
Minimum Humidity 67    
Precipitation  
Precipitation 0.21 in - - ()
Sea Level Pressure  
Sea Level Pressure 29.93 in    
Wind  
Wind Speed 18 mph (NNW)    
Max Wind Speed 39 mph    
Max Gust Speed 48 mph    
Visibility 8 miles    
Events Fog , Rain , Snow    
Averages and records for this station are not official NWS values.
T = Trace of Precipitation, MM = Missing Value Source: NWS Daily Summary

Daily Weather History Graph

Daily Weather History Graph

Search for Another Location

Airport or City:

Trip Planner

Search our weather history database for the weather conditions in past years. The results will help you decide how hot, cold, wet, or windy it might be!

Date:

Astronomy

Mar. 21, 2014 Rise Set
Actual Time 7:25 AM CDT 7:38 PM CDT
Civil Twilight 6:55 AM CDT 8:08 PM CDT
Nautical Twilight 6:20 AM CDT 8:44 PM CDT
Astronomical Twilight 5:44 AM CDT 9:20 PM CDT
Moon 12:13 AM CDT (3/21) 10:02 AM CDT (3/21)
Length of Visible Light 13h 13m
Length of Day
12h 13m
Waning Gibbous, 75% of the Moon is Illuminated
Mar 21
Waning Gibbous
Mar 23
Last Quarter
Mar 30
New
Apr 7
First Quarter
Apr 15
Full

Hourly Weather History & Observations

Time (CDT) Temp. Windchill Dew Point Humidity Pressure Visibility Wind Dir Wind Speed Gust Speed Precip Events Conditions
12:13 AM 37.4 °F 28.2 °F 30.2 °F 75% 29.74 in 10.0 mi South 16.1 mph - N/A   Overcast
12:33 AM 39.2 °F 30.8 °F 30.2 °F 70% 29.74 in 10.0 mi South 15.0 mph - N/A   Overcast
12:53 AM 37.4 °F 28.2 °F 30.2 °F 75% 29.74 in 10.0 mi South 16.1 mph - N/A   Mostly Cloudy
1:13 AM 37.4 °F 28.5 °F 30.2 °F 75% 29.75 in 10.0 mi South 15.0 mph - N/A   Scattered Clouds
1:33 AM 37.4 °F 28.9 °F 30.2 °F 75% 29.75 in 10.0 mi South 13.8 mph - N/A   Mostly Cloudy
1:53 AM 37.4 °F 30.3 °F 32.0 °F 81% 29.75 in 10.0 mi South 10.4 mph - N/A   Light Drizzle
2:13 AM 37.4 °F 30.3 °F 32.0 °F 81% 29.74 in 4.0 mi South 10.4 mph - 0.01 in   Overcast
2:33 AM 37.4 °F 28.9 °F 33.8 °F 87% 29.74 in 7.0 mi South 13.8 mph - 0.04 in Rain Light Rain
2:53 AM 35.6 °F 25.9 °F 33.8 °F 93% 29.73 in 7.0 mi SSE 16.1 mph - 0.07 in Rain Light Rain
3:13 AM 37.4 °F 29.3 °F 33.8 °F 87% 29.72 in 10.0 mi SSE 12.7 mph - N/A   Light Drizzle
3:33 AM 37.4 °F 28.9 °F 32.0 °F 81% 29.71 in 10.0 mi SSE 13.8 mph - N/A Rain Light Rain
3:53 AM 35.6 °F 26.6 °F 33.8 °F 93% 29.70 in 7.0 mi SSE 13.8 mph - 0.02 in Rain Light Rain
4:13 AM 35.6 °F 26.2 °F 33.8 °F 93% 29.68 in 7.0 mi SSE 15.0 mph - 0.01 in Rain Light Rain
4:33 AM 35.6 °F 25.2 °F 33.8 °F 93% 29.65 in 7.0 mi SSE 18.4 mph - 0.02 in Rain Rain
4:53 AM 35.6 °F 28.0 °F 33.8 °F 93% 29.66 in 7.0 mi South 10.4 mph - 0.03 in Rain Light Rain
5:13 AM 35.6 °F 29.2 °F 33.8 °F 93% 29.68 in 7.0 mi WSW 8.1 mph - N/A   Drizzle
5:33 AM 33.8 °F 27.7 °F 32.0 °F 93% 29.69 in 2.5 mi WSW 6.9 mph - 0.03 in Snow Light Snow
5:53 AM 33.8 °F 29.6 °F 30.2 °F 87% 29.69 in 1.0 mi SW 4.6 mph - 0.06 in Snow Light Snow
6:13 AM 32.0 °F 28.7 °F 30.2 °F 93% 29.69 in 2.0 mi South 3.5 mph - 0.02 in Snow Light Snow
6:33 AM 32.0 °F 26.4 °F 30.2 °F 93% 29.68 in 2.5 mi South 5.8 mph - 0.03 in   Overcast
6:52 AM 33.8 °F 27.7 °F 32.0 °F 93% 29.68 in 3.0 mi South 6.9 mph - 0.03 in   Mostly Cloudy
7:13 AM 33.8 °F 27.7 °F 32.0 °F 93% 29.68 in 3.0 mi South 6.9 mph - N/A   Mostly Cloudy
7:33 AM 33.8 °F 29.6 °F 32.0 °F 93% 29.68 in 2.5 mi SSW 4.6 mph - N/A   Overcast
7:53 AM 33.8 °F 25.8 °F 33.8 °F 100% 29.68 in 3.0 mi West 10.4 mph 16.1 mph N/A   Overcast
8:13 AM 33.8 °F 23.2 °F 32.0 °F 93% 29.69 in 2.5 mi NW 17.3 mph - N/A   Overcast
8:33 AM 33.8 °F 22.8 °F 32.0 °F 93% 29.69 in 0.5 mi NW 18.4 mph - N/A Fog Fog
8:53 AM 32.0 °F 19.8 °F 30.2 °F 93% 29.70 in 0.8 mi NW 20.7 mph 25.3 mph N/A Snow Light Snow
9:13 AM 32.0 °F 19.8 °F 32.0 °F 100% 29.71 in 4.0 mi NNW 20.7 mph 28.8 mph N/A   Overcast
9:33 AM 33.8 °F 21.9 °F 32.0 °F 93% 29.72 in 10.0 mi NNW 21.9 mph 29.9 mph N/A   Overcast
9:53 AM 33.8 °F 21.6 °F 30.2 °F 87% 29.74 in 7.0 mi North 23.0 mph 35.7 mph N/A Snow Light Snow
10:13 AM 32.0 °F 18.4 °F 30.2 °F 93% 29.76 in 1.0 mi NNW 26.5 mph - N/A Snow Light Snow
10:33 AM 30.2 °F 14.9 °F 28.4 °F 93% 29.77 in 2.5 mi North 31.1 mph 41.4 mph N/A   Mostly Cloudy
10:53 AM 28.4 °F 12.5 °F 26.6 °F 93% 29.80 in 4.0 mi NNW 31.1 mph 38.0 mph N/A   Mostly Cloudy
11:13 AM 26.6 °F 9.6 °F 24.8 °F 93% 29.82 in 5.0 mi NNW 33.4 mph 44.9 mph N/A   Mostly Cloudy
11:33 AM 26.6 °F 11.4 °F 23.0 °F 86% 29.84 in 10.0 mi North 25.3 mph 41.4 mph N/A   Overcast
11:53 AM 24.8 °F 6.0 °F 21.2 °F 86% 29.86 in 10.0 mi NNW 39.1 mph 48.3 mph N/A   Overcast
12:13 PM 24.8 °F 7.1 °F 21.2 °F 86% 29.88 in 10.0 mi North 33.4 mph 43.7 mph N/A   Mostly Cloudy
12:33 PM 24.8 °F 8.1 °F 19.4 °F 80% 29.90 in 10.0 mi North 28.8 mph 38.0 mph N/A   Mostly Cloudy
12:53 PM 23.0 °F 5.7 °F 19.4 °F 86% 29.92 in 10.0 mi North 28.8 mph 43.7 mph N/A   Overcast
1:13 PM 21.2 °F 1.7 °F 17.6 °F 86% 29.93 in 10.0 mi NNW 35.7 mph 46.0 mph N/A   Mostly Cloudy
1:32 PM 21.2 °F 3.0 °F 17.6 °F 86% 29.96 in 10.0 mi North 29.9 mph 44.9 mph N/A   Mostly Cloudy
1:53 PM 21.2 °F 4.2 °F 17.6 °F 86% 29.97 in 4.0 mi NNW 25.3 mph 44.9 mph N/A   Haze
2:13 PM 21.2 °F 2.4 °F 15.8 °F 80% 29.98 in 4.0 mi North 32.2 mph 42.6 mph N/A   Haze
2:33 PM 21.2 °F 3.3 °F 15.8 °F 80% 30.00 in 4.0 mi NNW 28.8 mph 38.0 mph N/A   Haze
2:53 PM 21.2 °F 4.9 °F 15.8 °F 80% 30.01 in 7.0 mi North 23.0 mph 40.3 mph N/A   Overcast
3:13 PM 19.4 °F 0.2 °F 15.8 °F 86% 30.03 in 7.0 mi NNW 31.1 mph 43.7 mph N/A   Overcast
3:33 PM 19.4 °F 1.4 °F 15.8 °F 86% 30.05 in 7.0 mi NNW 26.5 mph 34.5 mph N/A Snow Light Snow
3:53 PM 19.4 °F -0.3 °F 12.2 °F 74% 30.05 in 10.0 mi North 33.4 mph 44.9 mph N/A   Overcast
4:13 PM 19.4 °F -0.8 °F 12.2 °F 74% 30.06 in 10.0 mi NNW 35.7 mph 46.0 mph N/A   Mostly Cloudy
4:33 PM 19.4 °F 0.5 °F 14.0 °F 80% 30.07 in 10.0 mi North 29.9 mph 40.3 mph N/A   Scattered Clouds
4:53 PM 17.6 °F -2.2 °F 12.2 °F 79% 30.09 in 7.0 mi North 31.1 mph 43.7 mph N/A Snow Light Snow
5:13 PM 17.6 °F -1.0 °F 10.4 °F 73% 30.11 in 7.0 mi North 26.5 mph 42.6 mph N/A Snow Light Snow
5:33 PM 17.6 °F -1.6 °F 10.4 °F 73% 30.12 in 10.0 mi NNW 28.8 mph 41.4 mph N/A   Scattered Clouds
5:53 PM 17.6 °F 0.1 °F 10.4 °F 73% 30.14 in 10.0 mi North 23.0 mph 33.4 mph N/A   Scattered Clouds
6:13 PM 15.8 °F -2.7 °F 8.6 °F 73% 30.16 in 10.0 mi North 24.2 mph 39.1 mph N/A   Scattered Clouds
6:33 PM 15.8 °F -1.9 °F 8.6 °F 73% 30.17 in 10.0 mi North 21.9 mph 34.5 mph N/A Snow Light Snow
6:53 PM 15.8 °F -4.1 °F 8.6 °F 73% 30.18 in 10.0 mi North 28.8 mph 36.8 mph N/A Snow Light Snow
7:13 PM 15.8 °F -2.3 °F 8.6 °F 73% 30.19 in 10.0 mi NNW 23.0 mph 31.1 mph N/A   Scattered Clouds
7:33 PM 14.0 °F -5.8 °F 6.8 °F 73% 30.20 in 10.0 mi NNW 26.5 mph 34.5 mph N/A   Scattered Clouds
7:53 PM 12.2 °F -7.1 °F 6.8 °F 79% 30.21 in 10.0 mi NNW 23.0 mph 33.4 mph N/A   Clear
8:13 PM 12.2 °F -8.6 °F 6.8 °F 79% 30.22 in 10.0 mi North 27.6 mph 35.7 mph N/A   Scattered Clouds
8:33 PM 12.2 °F -7.5 °F 6.8 °F 79% 30.24 in 10.0 mi North 24.2 mph 35.7 mph N/A   Clear
8:53 PM 12.2 °F -7.9 °F 3.2 °F 67% 30.24 in 10.0 mi North 25.3 mph 31.1 mph N/A   Clear
9:13 PM 12.2 °F -8.2 °F 5.0 °F 73% 30.26 in 10.0 mi North 26.5 mph 39.1 mph N/A   Clear
9:33 PM 10.4 °F -9.5 °F 5.0 °F 79% 30.27 in 10.0 mi NNW 23.0 mph 33.4 mph N/A   Clear
9:53 PM 10.4 °F -7.7 °F 3.2 °F 73% 30.28 in 10.0 mi North 18.4 mph 34.5 mph N/A   Clear
10:13 PM 10.4 °F -7.7 °F 3.2 °F 73% 30.29 in 10.0 mi North 18.4 mph 29.9 mph N/A   Clear
10:33 PM 10.4 °F -6.6 °F 1.4 °F 67% 30.30 in 10.0 mi North 16.1 mph 32.2 mph N/A   Clear
10:53 PM 8.6 °F -11.4 °F 1.4 °F 73% 30.31 in 10.0 mi North 21.9 mph 27.6 mph N/A   Clear
11:13 PM 8.6 °F -8.9 °F 1.4 °F 73% 30.32 in 10.0 mi North 16.1 mph 33.4 mph N/A   Clear
11:33 PM 8.6 °F -10.5 °F 1.4 °F 73% 30.32 in 10.0 mi North 19.6 mph 31.1 mph N/A   Clear
11:53 PM 8.6 °F -9.5 °F -0.4 °F 67% 30.33 in 10.0 mi North 17.3 mph 31.1 mph N/A   Clear